TimeEST,TemperatureF,Dew PointF,Humidity,Sea Level PressureIn,VisibilityMPH,Wind Direction,Wind SpeedMPH,Gust SpeedMPH,PrecipitationIn,Events,Conditions,WindDirDegrees,DateUTC
12:15 AM,20.8,15.8,81,30.17,10.0,Calm,Calm,-,N/A,,Overcast,0,2014-01-29 05:15:00
12:35 AM,20.7,15.3,80,30.17,10.0,Calm,Calm,-,N/A,,Overcast,0,2014-01-29 05:35:00
12:55 AM,20.3,15.4,81,30.16,10.0,Calm,Calm,-,N/A,,Overcast,0,2014-01-29 05:55:00
1:15 AM,20.5,15.3,80,30.15,10.0,Calm,Calm,-,N/A,,Overcast,0,2014-01-29 06:15:00
1:35 AM,20.3,15.3,81,30.16,10.0,Calm,Calm,-,N/A,,Overcast,0,2014-01-29 06:35:00
1:55 AM,20.3,14.9,80,30.15,10.0,Calm,Calm,-,N/A,,Overcast,0,2014-01-29 06:55:00
2:15 AM,19.9,15.1,81,30.16,10.0,Calm,Calm,-,N/A,,Scattered Clouds,0,2014-01-29 07:15:00
2:35 AM,19.4,14.9,83,30.14,10.0,Calm,Calm,-,N/A,,Clear,0,2014-01-29 07:35:00
2:55 AM,19.8,14.7,81,30.14,10.0,Calm,Calm,-,N/A,,Clear,0,2014-01-29 07:55:00
3:15 AM,19.0,14.9,84,30.15,10.0,Calm,Calm,-,N/A,,Clear,0,2014-01-29 08:15:00
3:35 AM,19.4,15.1,83,30.16,10.0,Calm,Calm,-,N/A,,Clear,0,2014-01-29 08:35:00
3:55 AM,19.4,14.9,83,30.16,10.0,Calm,Calm,-,N/A,,Clear,0,2014-01-29 08:55:00
4:15 AM,18.3,15.3,88,30.16,10.0,Calm,Calm,-,N/A,,Clear,0,2014-01-29 09:15:00
4:35 AM,18.5,14.9,86,30.15,10.0,Calm,Calm,-,N/A,,Clear,0,2014-01-29 09:35:00
4:55 AM,17.6,14.9,89,30.17,10.0,Calm,Calm,-,N/A,,Clear,0,2014-01-29 09:55:00
5:15 AM,18.0,14.9,88,30.17,10.0,Calm,Calm,-,N/A,,Clear,0,2014-01-29 10:15:00
5:35 AM,18.3,15.1,87,30.17,10.0,Calm,Calm,-,N/A,,Clear,0,2014-01-29 10:35:00
5:55 AM,18.0,15.4,90,30.17,10.0,Calm,Calm,-,N/A,,Scattered Clouds,0,2014-01-29 10:55:00
6:15 AM,16.7,14.7,92,30.19,10.0,Calm,Calm,-,N/A,,Clear,0,2014-01-29 11:15:00
6:35 AM,16.9,14.5,91,30.19,10.0,Calm,Calm,-,N/A,,Clear,0,2014-01-29 11:35:00
6:55 AM,15.8,14.2,93,30.21,10.0,Calm,Calm,-,N/A,,Clear,0,2014-01-29 11:55:00
7:15 AM,16.0,14.0,92,30.21,10.0,Calm,Calm,-,N/A,,Scattered Clouds,0,2014-01-29 12:15:00
7:35 AM,15.4,13.6,93,30.22,10.0,NNW,3.5,-,N/A,,Scattered Clouds,330,2014-01-29 12:35:00
7:55 AM,15.6,13.3,90,30.23,10.0,Calm,Calm,-,N/A,,Clear,0,2014-01-29 12:55:00
8:15 AM,16.7,9.5,73,30.24,10.0,Calm,Calm,-,N/A,,Clear,0,2014-01-29 13:15:00
8:35 AM,18.1,6.6,61,30.25,10.0,Calm,Calm,-,N/A,,Mostly Cloudy,0,2014-01-29 13:35:00
8:55 AM,20.3,5.0,52,30.26,10.0,Calm,Calm,-,N/A,,Overcast,0,2014-01-29 13:55:00
9:15 AM,21.0,1.6,43,30.27,10.0,NNE,6.9,-,N/A,,Overcast,20,2014-01-29 14:15:00
9:35 AM,21.9,1.2,41,30.28,10.0,NNW,3.5,-,N/A,,Scattered Clouds,340,2014-01-29 14:35:00
9:55 AM,22.5,0.7,39,30.28,10.0,NNW,4.6,-,N/A,,Clear,330,2014-01-29 14:55:00
10:15 AM,23.4,1.0,38,30.29,10.0,North,4.6,-,N/A,,Clear,10,2014-01-29 15:15:00
10:35 AM,24.4,3.2,40,30.30,10.0,NW,3.5,-,N/A,,Clear,310,2014-01-29 15:35:00
10:55 AM,24.4,5.0,44,30.30,10.0,Calm,Calm,-,N/A,,Clear,0,2014-01-29 15:55:00
11:15 AM,24.1,5.9,46,30.30,10.0,Calm,Calm,-,N/A,,Clear,0,2014-01-29 16:15:00
11:35 AM,24.8,7.3,48,30.30,10.0,SE,3.5,-,N/A,,Clear,130,2014-01-29 16:35:00
11:55 AM,26.2,8.2,47,30.30,10.0,Calm,Calm,-,N/A,,Clear,0,2014-01-29 16:55:00
12:15 PM,27.1,9.1,47,30.29,10.0,Calm,Calm,-,N/A,,Clear,0,2014-01-29 17:15:00
12:35 PM,27.7,9.7,47,30.29,10.0,NNE,3.5,-,N/A,,Clear,30,2014-01-29 17:35:00
12:55 PM,28.2,10.8,48,30.28,10.0,Calm,Calm,-,N/A,,Clear,0,2014-01-29 17:55:00
1:15 PM,30.2,11.1,45,30.25,10.0,NW,3.5,-,N/A,,Clear,310,2014-01-29 18:15:00
1:35 PM,28.6,7.3,41,30.25,10.0,Calm,Calm,-,N/A,,Clear,0,2014-01-29 18:35:00
1:55 PM,31.3,9.9,41,30.24,10.0,Calm,Calm,-,N/A,,Scattered Clouds,0,2014-01-29 18:55:00
2:15 PM,29.8,6.3,37,30.24,10.0,Calm,Calm,-,N/A,,Clear,0,2014-01-29 19:15:00
2:35 PM,31.5,8.2,38,30.25,10.0,SW,3.5,-,N/A,,Clear,230,2014-01-29 19:35:00
2:55 PM,31.1,7.5,37,30.25,10.0,SSW,4.6,-,N/A,,Clear,210,2014-01-29 19:55:00
3:15 PM,32.0,7.5,36,30.26,10.0,West,6.9,-,N/A,,Clear,260,2014-01-29 20:15:00
3:35 PM,31.3,6.8,36,30.25,10.0,Calm,Calm,-,N/A,,Clear,0,2014-01-29 20:35:00
3:55 PM,32.0,7.3,36,30.25,10.0,WSW,3.5,-,N/A,,Clear,250,2014-01-29 20:55:00
4:15 PM,32.4,7.9,36,30.25,10.0,Calm,Calm,-,N/A,,Clear,0,2014-01-29 21:15:00
4:35 PM,31.3,7.7,37,30.25,10.0,West,3.5,-,N/A,,Clear,280,2014-01-29 21:35:00
4:55 PM,31.8,7.0,35,30.25,10.0,SW,4.6,-,N/A,,Clear,230,2014-01-29 21:55:00
5:15 PM,30.7,7.0,37,30.25,10.0,South,4.6,-,N/A,,Clear,190,2014-01-29 22:15:00
5:35 PM,29.7,6.6,38,30.25,10.0,Calm,Calm,-,N/A,,Clear,0,2014-01-29 22:35:00
5:55 PM,28.4,6.4,39,30.26,10.0,SSW,3.5,-,N/A,,Clear,200,2014-01-29 22:55:00
6:15 PM,28.4,5.7,38,30.27,10.0,SW,3.5,-,N/A,,Clear,220,2014-01-29 23:15:00
6:35 PM,27.1,6.6,42,30.27,10.0,South,3.5,-,N/A,,Clear,170,2014-01-29 23:35:00
6:55 PM,26.6,6.1,42,30.27,10.0,SSW,3.5,-,N/A,,Clear,200,2014-01-29 23:55:00
7:15 PM,26.6,5.7,41,30.28,10.0,ESE,3.5,-,N/A,,Clear,110,2014-01-30 00:15:00
7:35 PM,25.9,6.8,44,30.28,10.0,Calm,Calm,-,N/A,,Clear,0,2014-01-30 00:35:00
7:55 PM,26.6,6.4,42,30.29,10.0,Calm,Calm,-,N/A,,Clear,0,2014-01-30 00:55:00
8:15 PM,25.7,6.8,45,30.29,10.0,SSE,3.5,-,N/A,,Clear,150,2014-01-30 01:15:00
8:35 PM,24.8,7.7,48,30.29,10.0,ESE,3.5,-,N/A,,Clear,120,2014-01-30 01:35:00
8:55 PM,25.5,7.7,47,30.29,10.0,Calm,Calm,-,N/A,,Clear,0,2014-01-30 01:55:00
9:15 PM,24.3,8.1,50,30.29,10.0,Calm,Calm,-,N/A,,Clear,0,2014-01-30 02:15:00
9:35 PM,21.4,8.6,58,30.30,10.0,Calm,Calm,-,N/A,,Clear,0,2014-01-30 02:35:00
9:55 PM,23.4,8.6,53,30.29,10.0,Calm,Calm,-,N/A,,Clear,0,2014-01-30 02:55:00
10:15 PM,22.5,8.2,54,30.30,10.0,Calm,Calm,-,N/A,,Clear,0,2014-01-30 03:15:00
10:35 PM,21.6,8.1,56,30.31,10.0,Calm,Calm,-,N/A,,Clear,0,2014-01-30 03:35:00
10:55 PM,19.8,7.9,60,30.31,10.0,Calm,Calm,-,N/A,,Clear,0,2014-01-30 03:55:00
11:15 PM,19.4,8.4,62,30.31,10.0,Calm,Calm,-,N/A,,Clear,0,2014-01-30 04:15:00
11:35 PM,19.6,8.2,61,30.31,10.0,Calm,Calm,-,N/A,,Clear,0,2014-01-30 04:35:00
11:55 PM,16.0,9.1,74,30.31,10.0,Calm,Calm,-,N/A,,Clear,0,2014-01-30 04:55:00